Location: Adaghas
(31.2259°N, 9.0496°W)
Time: 03:53:14
(UTC+00:00)

Okean 2 Rocket - Pass Details

Date: 18 September 2020
Orbit: 616 x 642 km, 82.5° (Epoch: 23 October)

Event Time Altitude Azimuth Distance (km) Brightness Sun altitude
Rises 19:35:50 0° 171° (S) 2,932 6.3 -13.2°
Reaches altitude 10° 19:38:08 10° 164° (SSE) 2,025 5.4 -13.7°
Maximum altitude 19:42:25 45° 92° (E) 875 3.4 -14.6°
Drops below altitude 10° 19:46:42 10° 20° (NNE) 2,028 5.6 -15.5°
Sets 19:49:01 0° 15° (NNE) 2,936 6.5 -16.0°
